EHI
0 0 0 0 0 0 0 0 0 0 0 0 0 0 0 0 0 0 0 0 0 0 0 0 0 0 0 0 0 0 0 0 0 0 0 0 0 0 0 0 0 0 0
0 0 0 0 0 0 0 0 0 0 0 0 0 0 0 0 0 0 0 0 0 0 0 0 0 0 0 0 0 0 0 0 0 0 0 0 0 0 0 0 0 0 0
0 0 0 0 0 0 0 0 0 0 0 0 0 0 0 0 0 0 0 0 0 0 0 0 0 0 0 0 0 0 0 0 0 0 0 0 0 0 0 0 0 0 0
0 0 0 0 0 0 0 0 0 0 0 0 0 0 0 0 0 0 0 0 0 0 0 0 0 0 0 0 0 0 0 0 0 0 0 0 0 0 0 0 0 0 0
0 0 0 0 0 0 0 0 0 0 0 0 0 0 0 0 0 0 0 0 0 0 0 0 0 0 0 0 0 0 0 0 0 0 0 0 0 0 0 0 0 0 0
0 0 0 0 0 0 0 0 0 0 0 0 0 0 0 0 0 0 0 0 0 0 0 0 0 0 0 0 0 0 0 0 0 0 0 0 0 0 0 0 0 0 0
0 0 0 0 0 0 0 0 0 0 0 0 0 0 0 0 0 0 0 0 0 0 0 0 0 0 0 0 0 0 0 0 0 0 0 0 0 0 0 0 0 0 0
0 0 0 0 0 0 0 0 0 0 0 0 0 0 0 0 0 0 0 0 0 0 0 0 0 0 0 0 0 0 0 0 0 0 0 0 0 0 0 0 0 0 0
0 0 0 0 0 0 0 0 0 0 0 0 0 0 0 0 0 0 0 0 0 0 0 0 0 0 0 0 0 0 0 0 0 0 0 0 0 0 0 0 0 0 0
0 0 0 0 0 0 0 0 0 0 0 0 0 0 0 0 0 0 0 0 0 0 0 0 0 0 0 0 0 0 0 0 0 0 0 0 0 0 0 0 0 0 0
0 0 0 0 0 0 0 0 0 0 0 0 0 0 0 0 0 0 0 0 0 0 0 0 0 0 0 0 0 0 0 0 0 0 0 0 0 0 0 0 0 0 0
0 0 0 0 0 0 0 0 0 0 0 0 0 0 0 0 0 0 0 0 0 0 0 0 0 0 0 0 0 0 0 0 0 0 0 0 0 0 0 0 0 0 0
0 0 0 0 0 0 0 0 0 0 0 0 0 0 0 0 0 0 0 0 0 0 0 0 0 0 0 0 0 0 0 0 0 0 0 0 0 0 0 0 0 0 0
0 0 0 0 0 0 0 0 0 0 0 0 0 0 0 0 0 0 0 0 0 0 0 0 0 0 0 0 0 0 0 0 0 0 0 0 0 0 0 0 0 0 0
0 0 0 0 0 0 0 0 0 0 0 0 0 0 0 0 0 0 0 0 0 0 0 0 0 0 0 0 0 0 0 0 0 0 0 0 0 0 0 0 0 0 0
0 0 0 0 0 0 0 0 0 0 0 0 0 0 0 0 0 0 0 0 0 0 0 0 0 0 0 0 0 0 0 0 0 0 0 0 0 0 0 0 0 0 0
0 0 0 0 0 0 0 0 0 0 0 0 0 0 0 0 0 0 0 0 0 0 0 0 0 0 0 0 0 0 0 0 0 0 0 0 0 0 0 0 0 0 0
0 0 0 0 0 0 0 0 0 0 0 0 0 0 0 0 0 0 0 0 0 0 0 0 0 0 0 0 0 0 0 0 0 0 0 0 0 0 0 0 0 0 0
0 0 0 0 0 0 0 0 0 0 0 0 0 0 0 0 0 0 0 0 0 0 0 0 0 0 0 0 0 0 0 0 0 0 0 0 0 0 0 0 0 0 0
0 0 0 0 0 0 0 0 0 0 0 0 0 0 0 0 0 0 0 0 0 0 0 0 0 0 0 0 0 0 0 0 0 0 0 0 0 0 0 0 0 0 0
0 0 0 0 0 0 0 0 0 0 0 0 0 0 0 0 0 0 0 0 0 0 0 0 0 0 0 0 0 0 0 0 0 0 0 0 0 0 0 0 0 0 0
0 0 0 0 0 0 0 0 0 0 0 0 0 0 0 0 0 0 0 0 0 0 0 0 0 0 0 0 0 0 0 0 0 0 0 0 0 0 0 0 0 0 0
0 0 0 0 0 0 0 0 0 0 0 0 0 0 0 0 0 0 0 0 0 0 0 0 0 0 0 0 0 0 0 0 0 0 0 0 0 0 0 0 0 0 0
0 0 0 0 0 0 0 0 0 0 0 0 0 0 0 0 0 0 0 0 0 0 0 0 0 0 0 0 0 0 0 0 0 0 0 0 0 0 0 0 0 0 0
0 0 0 0 0 0 0 0 0 0 0 0 0 0 0 0 0 0 0 0 0 0 0 0 0 0 0 0 0 0 0 0 0 0 0 0 0 0 0 0 0 0 0
0 0 0 0 0 0 0 0 0 0 0 0 0 0 0 0 0 0 0 0 0 0 0 0 0 0 0 0 0 0 0 0 0 0 0 0 0 0 0 0 0 0 0
Wind_Speed
5 4 4 3 3 3 3 3 3 2 2 2 2 2 2 2 2 3 2 2 3 2 1 2 2 1 2 1 2 2 2 2 2 1 1 1 1 1 1 1 1 1 1
5 5 4 4 4 3 3 2 3 3 2 3 3 3 2 2 2 3 2 2 2 2 1 2 1 1 2 1 2 2 1 2 3 1 1 1 1 1 1 1 1 1 1
6 5 4 4 4 4 3 3 2 2 2 2 3 3 2 2 2 2 2 2 2 1 1 2 1 2 1 1 2 1 1 1 1 2 0 1 1 1 1 2 2 2 1
6 6 5 5 5 4 4 3 3 3 3 3 3 3 3 2 2 2 3 2 2 1 1 1 1 2 2 2 1 1 1 2 1 1 0 1 1 1 1 1 2 2 2
7 7 6 5 4 4 3 3 2 3 3 3 3 2 2 2 2 3 3 3 2 2 1 1 1 2 3 2 2 1 2 2 1 1 0 1 1 1 1 1 1 2 2
8 8 6 5 4 4 4 3 3 2 2 3 3 3 2 2 4 5 4 3 2 2 1 0 1 1 2 3 3 3 3 3 2 1 1 1 2 2 1 1 0 1 3
8 7 7 6 5 5 4 3 3 3 2 3 3 3 3 3 4 5 6 4 3 2 2 1 0 1 1 1 2 3 2 2 2 3 2 2 2 3 2 1 1 2 3
8 8 7 6 6 5 4 4 4 3 3 3 3 3 2 3 5 5 5 3 2 2 2 2 2 1 1 2 2 1 1 1 1 1 2 3 3 2 3 2 2 2 2
8 8 8 7 7 6 5 5 4 3 3 3 3 3 3 3 4 5 5 2 1 1 1 1 2 2 2 2 2 1 1 2 2 1 1 2 3 2 1 1 0 1 2
9 9 8 7 7 7 6 5 3 3 3 3 2 3 4 3 4 5 6 3 2 1 1 1 2 2 2 2 2 2 2 3 2 2 2 3 3 3 3 1 2 1 2
8 7 7 7 7 6 5 4 3 3 3 2 2 2 2 3 4 5 6 3 3 2 2 2 2 3 3 3 3 3 4 2 1 1 1 2 2 2 2 2 1 2 2
7 7 7 6 6 5 5 4 4 4 3 2 2 1 1 2 2 3 5 5 4 3 2 2 2 2 2 2 1 1 2 0 0 0 1 2 2 2 3 2 2 3 4
7 7 6 5 4 5 5 5 3 3 3 2 2 2 2 1 2 3 4 5 4 2 2 2 2 1 1 1 2 1 0 0 0 0 2 2 2 3 2 2 3 3 3
7 6 6 6 4 4 3 4 4 4 4 3 3 3 2 1 1 1 2 2 3 2 1 1 0 1 0 1 1 1 0 1 1 2 2 2 2 2 2 2 2 2 2
7 6 5 5 5 4 3 2 4 4 6 6 5 4 3 3 4 5 4 3 3 3 2 1 1 1 0 0 1 1 1 1 1 1 1 2 2 2 3 2 2 1 2
6 6 5 4 4 4 4 2 2 1 3 5 5 5 3 4 3 4 5 4 4 5 4 1 1 1 2 2 1 1 1 1 2 2 2 2 2 3 3 2 2 2 3
7 6 5 4 5 4 4 4 2 2 3 0 2 4 4 3 3 3 4 3 3 5 2 2 2 2 2 2 2 2 2 2 2 2 2 2 2 3 3 3 3 3 4
6 7 6 5 5 4 4 4 3 3 1 1 1 1 2 3 2 3 3 4 1 1 2 2 2 2 2 2 2 2 2 2 2 2 2 2 2 2 3 3 3 4 4
6 4 4 4 4 4 4 3 3 3 2 1 0 1 0 1 1 1 2 3 2 2 3 3 2 2 2 2 2 2 2 2 2 2 2 3 3 3 3 4 4 6 5
5 7 6 4 4 4 3 3 3 3 2 2 2 2 1 2 1 0 1 2 2 2 2 3 3 3 2 2 2 2 2 2 3 3 3 3 3 3 4 5 5 5 5
4 5 6 5 4 4 4 4 4 3 3 2 2 2 4 3 2 2 2 2 3 3 3 3 3 2 2 2 2 2 3 3 3 3 3 3 3 3 4 4 5 5 5
4 4 4 4 4 4 4 4 4 3 3 3 1 1 3 2 2 2 2 2 2 3 2 2 2 2 3 3 3 3 3 3 3 3 3 3 3 4 4 4 4 4 5
5 4 4 3 3 4 4 3 3 3 3 3 2 2 2 2 2 2 2 2 1 1 1 1 2 2 2 2 2 2 3 3 3 3 3 3 3 3 3 4 5 5 6
5 5 4 4 3 3 3 3 3 3 3 2 2 2 2 2 2 2 2 1 1 1 1 1 1 1 1 1 1 1 2 2 2 2 3 3 4 4 4 4 5 6 6
4 4 4 4 4 4 3 3 2 2 2 2 2 2 1 1 1 1 1 1 1 1 1 1 1 1 1 1 2 2 3 4 4 3 3 3 4 4 5 5 5 6 7
4 5 4 4 4 4 3 3 3 2 2 2 2 2 2 1 1 1 1 0 0 0 0 0 1 1 1 1 2 3 4 5 6 6 4 3 4 4 5 5 6 6 7
Wind_Direction
165 162 158 161 154 141 144 162 164 151 142 142 141 124 106 90 92 98 100 108 105 87 81 99 89 88 83 75 91 98 104 121 139 284 305 317 352 340 344 340 324 333 345
171 161 166 163 151 148 155 162 152 144 142 145 141 131 128 117 109 109 107 108 116 111 106 102 90 92 81 71 88 98 116 135 142 170 316 341 317 293 313 330 331 322 293
165 161 164 165 161 165 173 172 160 150 139 130 131 140 145 138 127 129 123 114 122 135 133 133 148 115 100 93 96 96 100 99 118 144 238 319 321 336 3 348 353 338 318
165 165 172 179 177 177 175 173 173 163 152 152 152 158 156 146 135 133 124 112 100 98 111 128 149 152 157 151 125 132 127 100 95 113 110 341 329 324 35 352 336 331 323
168 173 185 187 180 172 169 177 171 164 169 166 150 147 151 147 148 140 132 122 115 99 73 78 114 122 124 134 127 147 134 117 104 105 90 14 337 345 310 287 302 312 314
174 182 183 178 174 177 182 177 161 161 162 151 154 153 158 171 155 151 143 136 135 130 124 87 57 84 91 98 101 114 129 137 152 149 179 207 257 255 264 267 283 353 313
178 180 179 176 177 183 174 161 166 172 159 161 172 162 175 189 165 155 149 142 144 150 155 155 109 71 109 97 68 62 60 88 145 161 175 216 229 234 216 255 246 229 251
178 181 180 177 181 179 168 173 183 175 167 175 183 179 181 199 176 160 151 139 140 160 179 185 182 209 158 131 107 57 0 328 263 207 192 221 230 229 207 215 224 245 275
180 183 182 178 179 176 179 186 186 171 172 181 180 179 186 219 193 173 151 139 143 199 226 185 180 197 223 157 133 153 315 312 317 296 260 279 295 292 244 109 358 0 303
189 187 181 177 177 181 186 184 176 167 182 182 188 191 191 212 208 192 170 153 165 215 277 268 224 217 230 195 170 176 240 275 304 334 330 322 316 316 311 204 197 215 258
184 175 173 175 179 179 176 172 165 162 165 180 195 216 211 219 219 208 190 174 184 198 228 253 255 244 238 217 190 192 225 233 226 254 298 315 324 321 311 292 224 200 218
161 165 171 175 177 169 164 171 166 161 165 185 193 250 270 250 224 214 201 196 186 184 215 230 235 236 232 216 211 245 253 256 142 321 317 305 300 294 289 290 282 255 236
154 163 166 164 167 165 169 173 167 165 168 182 179 208 257 268 250 228 210 203 200 189 211 222 230 248 268 270 285 296 313 155 160 255 274 273 268 273 293 309 314 304 299
156 163 163 161 162 159 162 168 167 175 178 183 190 208 232 255 259 234 207 204 199 202 217 252 311 350 328 310 335 330 284 206 202 233 257 275 296 307 301 296 299 308 311
155 157 155 156 154 149 149 171 183 198 191 188 198 197 195 225 235 206 179 184 186 188 150 97 69 51 21 323 313 305 301 316 280 266 263 281 289 288 285 283 278 285 279
153 159 159 154 148 143 138 107 38 140 182 191 194 189 208 213 207 186 185 185 175 153 129 138 190 209 224 236 246 271 275 264 258 254 258 261 271 277 284 286 277 269 275
157 160 156 154 152 153 151 150 142 22 33 65 205 201 202 195 185 172 169 163 154 141 139 187 212 224 232 234 237 241 256 263 259 258 262 267 272 277 281 284 282 280 282
152 158 157 161 161 163 166 168 164 161 166 305 313 241 213 189 170 166 155 124 103 145 188 210 224 229 229 234 240 245 253 266 266 268 266 266 265 271 279 281 279 277 283
146 152 156 157 160 163 161 158 160 163 168 185 217 345 73 124 99 109 134 147 182 207 216 224 227 227 233 236 241 242 246 256 263 260 260 260 260 264 274 277 277 281 279
148 152 149 151 153 153 154 156 160 163 170 181 198 211 163 105 106 140 176 190 200 217 219 222 228 226 228 234 240 242 249 256 260 256 259 261 264 264 271 276 277 279 277
143 151 148 145 156 162 161 166 168 168 174 186 209 200 161 157 183 200 207 212 216 223 225 224 226 228 232 236 238 244 248 254 253 255 260 264 269 273 272 271 275 276 280
144 149 154 157 159 160 161 164 162 166 174 177 186 167 162 150 175 194 211 226 230 230 225 218 226 232 231 233 234 238 248 258 264 264 267 270 271 274 277 279 283 287 288
143 145 145 147 150 150 150 153 158 162 167 173 170 160 160 178 195 206 218 231 232 237 237 221 228 250 258 249 238 232 243 257 264 269 275 280 282 283 286 289 293 295 292
146 148 149 148 144 146 150 154 158 162 164 165 165 167 176 188 202 213 220 228 227 235 228 207 199 214 248 266 262 254 257 267 273 268 265 272 283 284 283 284 286 288 290
143 142 144 147 147 145 143 145 150 155 157 161 166 170 176 178 189 202 215 217 212 217 214 206 208 232 246 256 267 273 282 286 289 287 272 267 274 279 282 285 287 290 289
136 137 139 140 142 144 146 150 154 155 160 165 165 168 171 175 182 194 200 182 181 189 229 247 237 248 272 279 280 289 297 299 301 301 293 278 280 283 287 286 287 289 290